Hourly Data Report for October 23, 2016

All times are specified in Local Standard Time (LST). Add 1 hour to adjust for Daylight Saving Time where and when it is observed.

POND INLET A
NUNAVUT

72°41'22.000" N
77°58'08.000" W
61.60 m
2403206
71095
YIO

Download Data

Hourly Data (October 2016)
Hourly Data Report for October 23, 2016
Temp Definition
°C
Dew Point Temp Definition
°C
Rel Hum Definition
%
Wind Dir Definition
10's deg

Wind Spd Definition
km/h
Visibility Definition
km
Stn Press Definition
kPa
Hmdx Definition


Wind Chill Definition


Weather Definition


TIME
00:00 Legend Double Dagger -14.8 -16.0 91 16 17 16.1 102.40   -23 LegendNANA
01:00 Legend Double Dagger -14.2 -15.5 90 15 15 16.1 102.42   -22 LegendNANA
02:00 Legend Double Dagger -14.4 -16.0 88 16 17 16.1 102.45   -23 LegendNANA
03:00 Legend Double Dagger -13.0 -13.8 94 15 13 14.5 102.48   -20 LegendNANA
04:00 Legend Double Dagger -12.9 -13.8 93 17 18 16.1 102.49   -21 Snow
05:00 Legend Double Dagger -13.3 -14.2 93 14 18 2.0 102.49   -22 Fog
06:00 Legend Double Dagger -14.3 -15.7 90 15 18 0.8 102.51   -23 Freezing Fog
07:00 Legend Double Dagger -14.2 -15.4 91 16 13 16.1 102.54   -21 LegendNANA
08:00 Legend Double Dagger -14.7 -16.0 90 15 11 16.1 102.56   -21 LegendNANA
09:00 Legend Double Dagger -16.9 -18.4 88 16 13 16.1 102.56   -25 LegendNANA
10:00 Legend Double Dagger -14.5 -15.9 90 16 5 16.1 102.57   -18 LegendNANA
11:00 Legend Double Dagger -14.9 -16.3 89 16 8 16.1 102.58   -20 LegendNANA
12:00 Legend Double Dagger -16.6 -18.1 88 15 11 16.1 102.59   -24 LegendNANA
13:00 Legend Double Dagger -16.3 -17.9 88 16 8 16.1 102.60   -22 LegendNANA
14:00 Legend Double Dagger -15.9 -17.3 89 15 9 16.1 102.61   -22 LegendNANA
15:00 Legend Double Dagger -14.5 -15.8 90 15 8 16.1 102.63   -20 Snow
16:00 Legend Double Dagger -15.0 -16.5 89 14 11 16.1 102.65   -22 Snow
17:00 Legend Double Dagger -14.6 -16.1 89 15 11 16.1 102.68   -21 Snow
18:00 Legend Double Dagger -14.5 -15.9 89 14 13 16.1 102.67   -22 Snow
19:00 Legend Double Dagger -14.7 -16.1 89 14 15 16.1 102.66   -23 Snow
20:00 Legend Double Dagger -15.9 -17.5 88 14 13 9.7 102.64   -23 Fog
21:00 Legend Double Dagger -16.0 -17.4 89 14 15 16.1 102.59   -24 LegendNANA
22:00 Legend Double Dagger -14.9 -16.3 89 14 13 9.7 102.56   -22 Fog
23:00 Legend Double Dagger -15.3 -16.7 89 14 18 2.4 102.49   -24 Fog

Notes on Data Quality.

Legend

  • E = Estimated
  • M = Missing
  • NA = Not Available
  • ‡ = Partner data that is not subject to review by the National Climate Archives
Date modified: